This is the latest recevied weather packets stored in our database for station/object W4ZHA. If no packets are shown the sender has not sent any weather packets the latest 10 day(s).
| Time | Temp. | Humidity | Pressure | Rain* | Wind** | Luminosity | Snow |
|---|---|---|---|---|---|---|---|
| 1787951581 | 32.22° C | 46% | 1016.1 hPa | 0 mm | - | 402 W/m² | - |
| 1787951277 | 32.78° C | 45% | 1016.1 hPa | 0 mm | - | 410 W/m² | - |
| 1787950973 | 32.22° C | 45% | 1016.1 hPa | 0 mm | - | 412 W/m² | - |
| 1787950668 | 32.22° C | 45% | 1016.1 hPa | 0 mm | - | 144 W/m² | - |
| 1787950364 | 32.78° C | 45% | 1016.5 hPa | 0 mm | - | 423 W/m² | - |
| 1787950060 | 32.22° C | 52% | 1016.1 hPa | 0 mm | - | 419 W/m² | - |
| 1787949756 | 30.56° C | 54% | 1016.1 hPa | 0 mm | - | 412 W/m² | - |
| 1787949454 | 31.67° C | 54% | 1016.5 hPa | 0 mm | - | 100 W/m² | - |
| 1787949149 | 32.78° C | 51% | 1016.1 hPa | 0 mm | - | 172 W/m² | - |
| 1787948846 | 31.67° C | 54% | 1016.1 hPa | 0 mm | - | 172 W/m² | - |
| 1787948546 | 32.22° C | 46% | 1016.1 hPa | 0 mm | - | 435 W/m² | - |
| 1787948241 | 32.78° C | 46% | 1016.1 hPa | 0 mm | - | 456 W/m² | - |
| 1787947940 | 31.67° C | 49% | 1016.1 hPa | 0 mm | - | 115 W/m² | - |
| 1787947635 | 31.67° C | 45% | 1016.5 hPa | 0 mm | - | 497 W/m² | - |
| 1787947333 | 32.78° C | 45% | 1016.1 hPa | 0 mm | - | 481 W/m² | - |
| 1787947028 | 32.78° C | 47% | 1016.5 hPa | 0 mm | - | 490 W/m² | - |
| 1787946727 | 32.22° C | 49% | 1016.5 hPa | 0 mm | - | 472 W/m² | - |
| 1787946426 | 32.22° C | 47% | 1016.5 hPa | 0 mm | - | 470 W/m² | - |
| 1787946126 | 31.67° C | 50% | 1016.5 hPa | 0 mm | - | 468 W/m² | - |
| 1787945821 | 31.67° C | 50% | 1016.8 hPa | 0 mm | - | 484 W/m² | - |
| 1787945516 | 32.22° C | 52% | 1016.8 hPa | 0 mm | - | 487 W/m² | - |
| 1787945211 | 32.22° C | 53% | 1016.8 hPa | 0 mm | - | 489 W/m² | - |
| 1787944910 | 32.78° C | 49% | 1017.2 hPa | 0 mm | - | 488 W/m² | - |
| 1787944608 | 32.22° C | 48% | 1017.2 hPa | 0 mm | - | 493 W/m² | - |
| 1787944304 | 32.78° C | 50% | 1017.2 hPa | 0 mm | - | 489 W/m² | - |
* Rain latest hour (hover to see other rain measurements)
** Current wind speed in m/s (hover to see current wind gust speed)